Location: Amsterdam
(30.7274°N, 84.4357°W)
Time: 05:32:45
(UTC+00:00)

Courier 1B Rocket - Pass Details

Date: 07 February 2026
Orbit: 920 x 1201 km, 28.2° (Epoch: 5 March)

Event Time Altitude Azimuth Distance (km) Brightness Sun altitude
Rises 11:19:04 0° 271° (W) 4,086 - -14.6°
Reaches altitude 10° 11:22:35 10° 257° (WSW) 3,127 - -13.9°
Exits shadow 11:23:34 13° 252° (WSW) 2,899 6.9 -13.7°
Maximum altitude 11:28:24 23° 209° (SSW) 2,287 6.8 -12.6°
Drops below altitude 10° 11:34:08 10° 160° (SSE) 3,073 8.0 -11.4°
Sets 11:37:34 0° 146° (SSE) 3,998 8.9 -10.7°
